Location: Unspecified
(0.0000°N, 0.0000°E)
Time: 02:42:13
(UTC+00:00)

UNISAT 6 - Visible Passes

Search period start: 27 February 2024 00:00
Search period end: 08 March 2024 00:00
Orbit: 596 x 670 km, 97.7° (Epoch: 26 February)

Date Brightness Start Highest point End Pass type
(mag) Time Alt. Az. Time Alt. Az. Time Alt. Az.
27 Feb ? 04:58:30 10° SSW 05:02:21 34° WSW 05:02:45 34° W visible
28 Feb ? 03:44:38 10° ESE 03:46:58 18° E 03:46:58 18° E visible
28 Feb ? 05:20:52 10° SW 05:23:41 17° WSW 05:24:24 17° W visible
29 Feb ? 04:04:57 10° SE 04:08:36 36° E 04:08:36 36° E visible
01 Mar ? 04:25:55 10° SSE 04:30:10 77° ENE 04:30:14 77° ENE visible
02 Mar ? 04:47:21 10° S 04:51:29 50° WSW 04:51:52 48° W visible
03 Mar ? 03:34:39 10° ESE 03:36:03 13° E 03:36:03 13° E visible
03 Mar ? 05:09:18 10° SSW 05:12:48 24° W 05:13:30 23° W visible
04 Mar ? 03:54:21 10° SE 03:57:41 26° E 03:57:41 26° E visible
04 Mar ? 05:32:19 10° SW 05:34:05 12° WSW 05:35:08 11° W visible
05 Mar ? 04:15:02 10° SSE 04:19:13 53° ENE 04:19:19 53° ENE visible
06 Mar ? 04:36:12 10° S 04:40:29 73° WSW 04:40:58 65° NW visible
07 Mar ? 04:57:50 10° SSW 05:01:46 35° WSW 05:02:36 32° WNW visible
